Time,TemperatureF,DewpointF,PressureIn,WindDirection,WindDirectionDegrees,WindSpeedMPH,WindSpeedGustMPH,Humidity,HourlyPrecipIn,Conditions,Clouds,dailyrainin,SoftwareType,DateUTC
2013-01-18 00:03:00,26.0,19.0,-100.00,SE,138,5.0,12.0,72,0.00,,,-99.99,,2013-01-18 05:03:00,
2013-01-18 00:12:00,25.0,19.0,-100.00,ESE,114,6.0,12.0,75,7.36,,,-99.99,,2013-01-18 05:12:00,
2013-01-18 00:22:00,25.0,19.0,-100.00,SSE,168,6.0,12.0,73,1.14,,,-99.99,,2013-01-18 05:22:00,
2013-01-18 00:33:00,24.0,19.0,-100.00,ESE,117,9.0,12.0,75,1.14,,,-99.99,,2013-01-18 05:33:00,
2013-01-18 00:43:00,24.0,18.0,-100.00,SSW,207,9.0,12.0,73,0.00,,,-99.99,,2013-01-18 05:43:00,
2013-01-18 00:52:00,22.0,16.0,-100.00,SSE,149,9.0,12.0,72,0.00,,,-99.99,,2013-01-18 05:52:00,
2013-01-18 01:02:00,23.0,16.0,-100.00,SSE,156,7.0,12.0,71,0.00,,,-99.99,,2013-01-18 06:02:00,
2013-01-18 01:12:00,22.0,14.0,-100.00,ESE,104,9.0,14.0,69,0.00,,,-99.99,,2013-01-18 06:12:00,
2013-01-18 01:22:00,21.0,14.0,-100.00,South,179,9.0,14.0,68,0.00,,,-99.99,,2013-01-18 06:22:00,
2013-01-18 01:33:00,22.0,14.0,-100.00,SSE,165,6.0,14.0,68,0.00,,,-99.99,,2013-01-18 06:33:00,
2013-01-18 01:43:00,21.0,12.0,-100.00,SE,131,10.0,14.0,63,0.00,,,-99.99,,2013-01-18 06:43:00,
2013-01-18 01:52:00,21.0,12.0,-100.00,SE,146,9.0,14.0,64,0.00,,,-99.99,,2013-01-18 06:52:00,
2013-01-18 02:02:00,20.0,10.0,-100.00,SE,127,7.0,14.0,62,0.00,,,-99.99,,2013-01-18 07:02:00,
2013-01-18 02:12:00,21.0,9.0,-100.00,ESE,121,9.0,14.0,56,0.00,,,-99.99,,2013-01-18 07:12:00,
2013-01-18 02:22:00,20.0,10.0,-100.00,SE,134,7.0,14.0,62,0.00,,,-99.99,,2013-01-18 07:22:00,
2013-01-18 02:32:00,20.0,10.0,-100.00,SE,145,8.0,14.0,60,0.00,,,-99.99,,2013-01-18 07:32:00,
2013-01-18 02:42:00,20.0,10.0,-100.00,SE,144,6.0,14.0,62,0.00,,,-99.99,,2013-01-18 07:42:00,
2013-01-18 02:52:00,20.0,10.0,-100.00,SSE,162,7.0,14.0,64,0.00,,,-99.99,,2013-01-18 07:52:00,
2013-01-18 03:02:00,20.0,10.0,-100.00,SE,138,6.0,14.0,62,0.00,,,-99.99,,2013-01-18 08:02:00,
2013-01-18 03:12:00,20.0,7.0,-100.00,ESE,118,8.0,14.0,56,0.00,,,-99.99,,2013-01-18 08:12:00,
2013-01-18 03:22:00,20.0,9.0,-100.00,ESE,110,7.0,14.0,56,0.00,,,-99.99,,2013-01-18 08:22:00,
2013-01-18 03:32:00,19.0,9.0,-100.00,SSE,165,9.0,14.0,58,0.00,,,-99.99,,2013-01-18 08:32:00,
2013-01-18 03:42:00,19.0,9.0,-100.00,South,173,5.0,14.0,59,0.00,,,-99.99,,2013-01-18 08:42:00,
2013-01-18 03:52:00,20.0,9.0,-100.00,ESE,114,9.0,14.0,58,0.00,,,-99.99,,2013-01-18 08:52:00,
2013-01-18 04:03:00,19.0,9.0,-100.00,ESE,114,8.0,14.0,59,0.00,,,-99.99,,2013-01-18 09:03:00,
2013-01-18 04:12:00,19.0,9.0,-100.00,SSE,149,6.0,14.0,60,0.00,,,-99.99,,2013-01-18 09:12:00,
2013-01-18 04:22:00,20.0,9.0,-100.00,ESE,120,8.0,14.0,58,0.00,,,-99.99,,2013-01-18 09:22:00,
2013-01-18 04:33:00,20.0,9.0,-100.00,ESE,105,7.0,14.0,59,0.00,,,-99.99,,2013-01-18 09:33:00,
2013-01-18 04:42:00,19.0,9.0,-100.00,South,177,8.0,14.0,59,0.00,,,-99.99,,2013-01-18 09:42:00,
2013-01-18 04:52:00,19.0,9.0,-100.00,East,90,8.0,14.0,59,0.00,,,-99.99,,2013-01-18 09:52:00,
2013-01-18 05:03:00,18.0,7.0,-100.00,SE,142,9.0,14.0,59,0.00,,,-99.99,,2013-01-18 10:03:00,
2013-01-18 05:12:00,19.0,9.0,-100.00,ESE,120,8.0,14.0,60,0.00,,,-99.99,,2013-01-18 10:12:00,
2013-01-18 05:22:00,19.0,7.0,-100.00,SE,124,9.0,14.0,58,0.00,,,-99.99,,2013-01-18 10:22:00,
2013-01-18 05:32:00,20.0,7.0,-100.00,SSE,153,7.0,14.0,55,0.00,,,-99.99,,2013-01-18 10:32:00,
2013-01-18 05:43:00,20.0,9.0,-100.00,SE,136,11.0,14.0,56,0.00,,,-99.99,,2013-01-18 10:43:00,
2013-01-18 05:52:00,19.0,9.0,-100.00,SE,132,9.0,14.0,59,0.00,,,-99.99,,2013-01-18 10:52:00,
2013-01-18 06:02:00,20.0,9.0,-100.00,ESE,122,5.0,14.0,60,0.00,,,-99.99,,2013-01-18 11:02:00,
2013-01-18 06:12:00,20.0,10.0,-100.00,SE,128,6.0,14.0,62,0.00,,,-99.99,,2013-01-18 11:12:00,
2013-01-18 06:23:00,20.0,10.0,-100.00,SE,134,4.0,14.0,63,0.00,,,-99.99,,2013-01-18 11:23:00,
2013-01-18 06:32:00,20.0,9.0,-100.00,SE,146,5.0,14.0,59,0.00,,,-99.99,,2013-01-18 11:32:00,
2013-01-18 06:42:00,20.0,10.0,-100.00,SE,127,5.0,14.0,60,0.00,,,-99.99,,2013-01-18 11:42:00,
2013-01-18 06:52:00,20.0,10.0,-100.00,SE,129,6.0,14.0,60,0.00,,,-99.99,,2013-01-18 11:52:00,
2013-01-18 07:03:00,20.0,10.0,-100.00,SE,141,4.0,14.0,60,0.00,,,-99.99,,2013-01-18 12:03:00,
2013-01-18 07:12:00,19.0,9.0,-100.00,South,169,5.0,14.0,62,0.00,,,-99.99,,2013-01-18 12:12:00,
2013-01-18 07:22:00,20.0,10.0,-100.00,ESE,121,3.0,14.0,63,0.00,,,-99.99,,2013-01-18 12:22:00,
2013-01-18 07:33:00,20.0,10.0,-100.00,SSE,156,2.0,14.0,60,0.00,,,-99.99,,2013-01-18 12:33:00,
2013-01-18 07:43:00,20.0,10.0,-100.00,SSE,149,2.0,14.0,62,0.00,,,-99.99,,2013-01-18 12:43:00,
2013-01-18 07:52:00,20.0,10.0,-100.00,ESE,121,2.0,14.0,64,0.00,,,-99.99,,2013-01-18 12:52:00,
2013-01-18 08:03:00,18.0,9.0,-100.00,SSW,206,2.0,14.0,62,0.00,,,-99.99,,2013-01-18 13:03:00,
2013-01-18 08:12:00,20.0,10.0,-100.00,SE,131,2.0,14.0,62,0.00,,,-99.99,,2013-01-18 13:12:00,
2013-01-18 08:23:00,20.0,10.0,-100.00,SSE,168,3.0,14.0,64,0.00,,,-99.99,,2013-01-18 13:23:00,
2013-01-18 08:33:00,20.0,12.0,-100.00,ESE,110,3.0,14.0,67,0.00,,,-99.99,,2013-01-18 13:33:00,
2013-01-18 08:43:00,20.0,10.0,-100.00,SE,145,2.0,14.0,66,0.00,,,-99.99,,2013-01-18 13:43:00,
2013-01-18 08:53:00,21.0,12.0,-100.00,East,101,2.0,14.0,68,0.00,,,-99.99,,2013-01-18 13:53:00,
2013-01-18 09:03:00,20.0,12.0,-100.00,SE,124,1.0,14.0,67,0.00,,,-99.99,,2013-01-18 14:03:00,
2013-01-18 09:12:00,21.0,12.0,-100.00,ESE,114,1.0,14.0,68,0.00,,,-99.99,,2013-01-18 14:12:00,
2013-01-18 09:23:00,20.0,12.0,-100.00,ENE,77,1.0,14.0,68,1.14,,,-99.99,,2013-01-18 14:23:00,
2013-01-18 09:34:00,21.0,14.0,-100.00,SE,141,2.0,14.0,71,0.00,,,-99.99,,2013-01-18 14:34:00,
2013-01-18 09:43:00,21.0,14.0,-100.00,East,94,2.0,14.0,69,0.00,,,-99.99,,2013-01-18 14:43:00,
2013-01-18 09:53:00,22.0,16.0,-100.00,East,98,3.0,14.0,71,0.00,,,-99.99,,2013-01-18 14:53:00,
2013-01-18 10:03:00,21.0,14.0,-100.00,NE,56,3.0,14.0,71,4.53,,,-99.99,,2013-01-18 15:03:00,
2013-01-18 10:13:00,21.0,16.0,-100.00,NNE,18,4.0,14.0,75,2.83,,,-99.99,,2013-01-18 15:13:00,
2013-01-18 10:23:00,21.0,16.0,-100.00,NE,53,3.0,14.0,77,6.22,,,-99.99,,2013-01-18 15:23:00,
2013-01-18 10:34:00,23.0,19.0,-100.00,NNE,16,3.0,14.0,80,17.01,,,-99.99,,2013-01-18 15:34:00,
2013-01-18 10:43:00,23.0,18.0,-100.00,ENE,57,2.0,14.0,78,4.53,,,-99.99,,2013-01-18 15:43:00,
2013-01-18 10:53:00,23.0,18.0,-100.00,NNE,25,1.0,14.0,78,9.06,,,-99.99,,2013-01-18 15:53:00,
2013-01-18 11:03:00,22.0,16.0,-100.00,NE,42,3.0,14.0,76,1.14,,,-99.99,,2013-01-18 16:03:00,
2013-01-18 11:13:00,23.0,18.0,-100.00,NNE,19,1.0,14.0,77,4.53,,,-99.99,,2013-01-18 16:13:00,
2013-01-18 11:23:00,23.0,18.0,-100.00,NNE,25,2.0,14.0,78,4.53,,,-99.99,,2013-01-18 16:23:00,
2013-01-18 11:33:00,23.0,18.0,-100.00,NNE,19,3.0,14.0,73,1.14,,,-99.99,,2013-01-18 16:33:00,
2013-01-18 11:43:00,23.0,16.0,-100.00,NNE,22,3.0,14.0,73,6.22,,,-99.99,,2013-01-18 16:43:00,
2013-01-18 11:52:00,24.0,18.0,-100.00,NNW,344,4.0,14.0,72,1.14,,,-99.99,,2013-01-18 16:52:00,
2013-01-18 12:03:00,24.0,16.0,-100.00,NE,40,4.0,14.0,71,1.14,,,-99.99,,2013-01-18 17:03:00,
2013-01-18 12:13:00,23.0,16.0,-100.00,NNE,12,4.0,14.0,72,0.00,,,-99.99,,2013-01-18 17:13:00,
2013-01-18 12:23:00,25.0,16.0,-100.00,NNE,24,3.0,14.0,67,0.00,,,-99.99,,2013-01-18 17:23:00,
2013-01-18 12:33:00,24.0,16.0,-100.00,ESE,107,5.0,14.0,69,0.00,,,-99.99,,2013-01-18 17:33:00,
2013-01-18 12:43:00,28.0,19.0,-100.00,NE,46,4.0,14.0,67,0.00,,,-99.99,,2013-01-18 17:43:00,
2013-01-18 12:53:00,27.0,18.0,-100.00,NNE,15,2.0,14.0,66,0.00,,,-99.99,,2013-01-18 17:53:00,
2013-01-18 13:03:00,27.0,16.0,-100.00,ESE,122,2.0,14.0,60,0.00,,,-99.99,,2013-01-18 18:03:00,
2013-01-18 13:13:00,26.0,16.0,-100.00,NNE,25,4.0,14.0,63,0.00,,,-99.99,,2013-01-18 18:13:00,
2013-01-18 13:23:00,27.0,18.0,-100.00,ENE,73,2.0,14.0,62,0.00,,,-99.99,,2013-01-18 18:23:00,
2013-01-18 13:33:00,28.0,18.0,-100.00,East,97,2.0,14.0,60,0.00,,,-99.99,,2013-01-18 18:33:00,
2013-01-18 13:43:00,29.0,16.0,-100.00,NE,46,3.0,14.0,56,0.00,,,-99.99,,2013-01-18 18:43:00,
2013-01-18 13:52:00,27.0,16.0,-100.00,NNE,12,4.0,14.0,60,0.00,,,-99.99,,2013-01-18 18:52:00,
2013-01-18 14:03:00,29.0,18.0,-100.00,East,81,4.0,14.0,58,0.00,,,-99.99,,2013-01-18 19:03:00,
2013-01-18 14:13:00,29.0,16.0,-100.00,ENE,69,4.0,14.0,55,0.00,,,-99.99,,2013-01-18 19:13:00,
2013-01-18 14:23:00,29.0,16.0,-100.00,NE,40,2.0,14.0,56,0.00,,,-99.99,,2013-01-18 19:23:00,
2013-01-18 14:33:00,29.0,16.0,-100.00,NNE,21,4.0,14.0,54,0.00,,,-99.99,,2013-01-18 19:33:00,
2013-01-18 14:43:00,28.0,14.0,-100.00,NE,45,5.0,14.0,55,0.00,,,-99.99,,2013-01-18 19:43:00,
2013-01-18 14:52:00,30.0,16.0,-100.00,NNE,31,5.0,14.0,53,0.00,,,-99.99,,2013-01-18 19:52:00,
2013-01-18 15:03:00,30.0,16.0,-100.00,North,4,6.0,14.0,55,0.00,,,-99.99,,2013-01-18 20:03:00,
2013-01-18 15:13:00,30.0,16.0,-100.00,NE,46,8.0,14.0,53,0.00,,,-99.99,,2013-01-18 20:13:00,
2013-01-18 15:23:00,29.0,16.0,-100.00,NE,42,6.0,14.0,55,0.00,,,-99.99,,2013-01-18 20:23:00,
2013-01-18 15:33:00,30.0,16.0,-100.00,NNE,32,5.0,14.0,53,0.00,,,-99.99,,2013-01-18 20:33:00,
2013-01-18 15:43:00,30.0,14.0,-100.00,NE,42,4.0,14.0,50,0.00,,,-99.99,,2013-01-18 20:43:00,
2013-01-18 15:53:00,31.0,16.0,-100.00,North,4,6.0,14.0,51,0.00,,,-99.99,,2013-01-18 20:53:00,
2013-01-18 16:03:00,30.0,16.0,-100.00,NNE,14,9.0,14.0,54,0.00,,,-99.99,,2013-01-18 21:03:00,
2013-01-18 16:13:00,31.0,18.0,-100.00,NNE,26,9.0,9.0,53,0.00,,,-99.99,,2013-01-18 21:13:00,
2013-01-18 16:23:00,30.0,18.0,-100.00,NE,52,8.0,9.0,55,0.00,,,-99.99,,2013-01-18 21:23:00,
2013-01-18 16:33:00,30.0,16.0,-100.00,NE,46,9.0,12.0,54,0.00,,,-99.99,,2013-01-18 21:33:00,
2013-01-18 16:43:00,31.0,18.0,-100.00,NNE,28,8.0,12.0,55,0.00,,,-99.99,,2013-01-18 21:43:00,
2013-01-18 16:52:00,31.0,18.0,-100.00,NNE,15,9.0,12.0,53,0.00,,,-99.99,,2013-01-18 21:52:00,
2013-01-18 17:03:00,32.0,18.0,-100.00,NE,36,9.0,14.0,53,0.00,,,-99.99,,2013-01-18 22:03:00,
2013-01-18 17:12:00,31.0,18.0,-100.00,ENE,63,11.0,14.0,53,0.00,,,-99.99,,2013-01-18 22:12:00,
2013-01-18 17:23:00,34.0,21.0,-100.00,NNE,32,9.0,14.0,55,0.00,,,-99.99,,2013-01-18 22:23:00,
2013-01-18 17:33:00,29.0,16.0,-100.00,NNE,28,9.0,14.0,54,0.00,,,-99.99,,2013-01-18 22:33:00,
2013-01-18 17:43:00,30.0,18.0,-100.00,NE,35,8.0,14.0,55,0.00,,,-99.99,,2013-01-18 22:43:00,
2013-01-18 17:52:00,30.0,18.0,-100.00,NNE,22,7.0,14.0,56,0.00,,,-99.99,,2013-01-18 22:52:00,
2013-01-18 18:03:00,30.0,18.0,-100.00,NNE,12,9.0,14.0,55,0.00,,,-99.99,,2013-01-18 23:03:00,
2013-01-18 18:12:00,31.0,18.0,-100.00,North,8,9.0,14.0,55,0.00,,,-99.99,,2013-01-18 23:12:00,
2013-01-18 18:22:00,31.0,18.0,-100.00,NNE,33,9.0,14.0,55,0.00,,,-99.99,,2013-01-18 23:22:00,
2013-01-18 18:33:00,31.0,18.0,-100.00,NNE,19,8.0,14.0,56,0.00,,,-99.99,,2013-01-18 23:33:00,
2013-01-18 18:43:00,31.0,18.0,-100.00,North,358,9.0,14.0,56,0.00,,,-99.99,,2013-01-18 23:43:00,
2013-01-18 18:52:00,30.0,18.0,-100.00,NNE,32,8.0,14.0,56,0.00,,,-99.99,,2013-01-18 23:52:00,
2013-01-18 19:02:00,29.0,16.0,-100.00,North,8,7.0,14.0,56,0.00,,,-99.99,,2013-01-19 00:02:00,
2013-01-18 19:13:00,29.0,18.0,-100.00,North,5,7.0,14.0,58,0.00,,,-99.99,,2013-01-19 00:13:00,
2013-01-18 19:23:00,30.0,18.0,-100.00,NNE,28,7.0,14.0,58,0.00,,,-99.99,,2013-01-19 00:23:00,
2013-01-18 19:33:00,30.0,18.0,-100.00,North,11,7.0,14.0,59,0.00,,,-99.99,,2013-01-19 00:33:00,
2013-01-18 19:43:00,32.0,21.0,-100.00,NNE,24,9.0,14.0,60,0.00,,,-99.99,,2013-01-19 00:43:00,
2013-01-18 19:53:00,30.0,18.0,-100.00,North,352,11.0,14.0,59,0.00,,,-99.99,,2013-01-19 00:53:00,
2013-01-18 20:03:00,30.0,19.0,-100.00,North,5,11.0,14.0,60,0.00,,,-99.99,,2013-01-19 01:03:00,
2013-01-18 20:12:00,28.0,18.0,-100.00,North,5,9.0,14.0,63,0.00,,,-99.99,,2013-01-19 01:12:00,
2013-01-18 20:22:00,30.0,19.0,-100.00,NNE,14,11.0,14.0,62,0.00,,,-99.99,,2013-01-19 01:22:00,
2013-01-18 20:33:00,31.0,21.0,-100.00,North,9,12.0,14.0,63,0.00,,,-99.99,,2013-01-19 01:33:00,
2013-01-18 20:43:00,29.0,19.0,-100.00,North,9,11.0,14.0,64,0.00,,,-99.99,,2013-01-19 01:43:00,
2013-01-18 20:52:00,29.0,19.0,-100.00,NNE,21,9.0,14.0,63,0.00,,,-99.99,,2013-01-19 01:52:00,
2013-01-18 21:03:00,29.0,19.0,-100.00,NE,35,8.0,14.0,64,0.00,,,-99.99,,2013-01-19 02:03:00,
2013-01-18 21:12:00,29.0,19.0,-100.00,NNE,15,9.0,14.0,64,0.00,,,-99.99,,2013-01-19 02:12:00,
2013-01-18 21:23:00,30.0,19.0,-100.00,NNE,31,11.0,14.0,63,0.00,,,-99.99,,2013-01-19 02:23:00,
2013-01-18 21:33:00,31.0,19.0,-100.00,NNE,18,11.0,14.0,60,0.00,,,-99.99,,2013-01-19 02:33:00,
2013-01-18 21:43:00,32.0,21.0,-100.00,North,4,11.0,14.0,60,0.00,,,-99.99,,2013-01-19 02:43:00,
2013-01-18 21:53:00,31.0,19.0,-100.00,NE,56,11.0,14.0,59,0.00,,,-99.99,,2013-01-19 02:53:00,
2013-01-18 22:03:00,30.0,18.0,-100.00,NNE,26,9.0,14.0,58,0.00,,,-99.99,,2013-01-19 03:03:00,
2013-01-18 22:12:00,31.0,19.0,-100.00,NNW,344,11.0,14.0,59,0.00,,,-99.99,,2013-01-19 03:12:00,
2013-01-18 22:22:00,32.0,19.0,-100.00,NNE,16,12.0,14.0,56,0.00,,,-99.99,,2013-01-19 03:22:00,
2013-01-18 22:33:00,30.0,18.0,-100.00,NNE,31,12.0,14.0,56,0.00,,,-99.99,,2013-01-19 03:33:00,
2013-01-18 22:43:00,32.0,19.0,-100.00,North,5,11.0,14.0,56,0.00,,,-99.99,,2013-01-19 03:43:00,
2013-01-18 22:52:00,32.0,19.0,-100.00,NNE,32,8.0,14.0,55,0.00,,,-99.99,,2013-01-19 03:52:00,
2013-01-18 23:02:00,32.0,18.0,-100.00,North,5,9.0,14.0,55,0.00,,,-99.99,,2013-01-19 04:02:00,
2013-01-18 23:12:00,32.0,18.0,-100.00,NNE,12,9.0,14.0,54,0.00,,,-99.99,,2013-01-19 04:12:00,
2013-01-18 23:22:00,32.0,18.0,-100.00,NE,39,8.0,14.0,54,0.00,,,-99.99,,2013-01-19 04:22:00,
2013-01-18 23:33:00,34.0,19.0,-100.00,NE,39,9.0,14.0,53,0.00,,,-99.99,,2013-01-19 04:33:00,
2013-01-18 23:42:00,33.0,19.0,-100.00,North,1,9.0,14.0,53,0.00,,,-99.99,,2013-01-19 04:42:00,
2013-01-18 23:52:00,33.0,18.0,-100.00,North,360,11.0,14.0,51,0.00,,,-99.99,,2013-01-19 04:52:00,